Other Public Products
Issued by NWS Grand Forks, ND

Home | Current Version | Previous Version | Text Only | Print | Product List | Glossary Off
Versions: 1 2 3 4 5 6 7 8 9 10 11 12 13 14 15 16 17 18 19 20 21 22 23 24 25 26 27 28 29 30 31 32 33 34 35 36 37 38 39 40 41 42 43 44 45 46 47 48 49 50

000
FPUS83 KFGF 301631
OPUFGF
PRAIRIE TO PINES WEATHER ROUNDUP
NATIONAL WEATHER SERVICE EASTERN NORTH DAKOTA/GRAND FORKS ND
1100 AM CDT THU OCT 30 2014

 **SATELLITE DATA USED TO AUGMENT SKY COVER AT AUTOMATED STATIONS**
 *****  WEATHER ACROSS EASTERN NORTH DAKOTA  *****

CITY           SKY/WX    TMP DP  RH WIND       PRES   REMARKS
GRAND FORKS    CLOUDY    36  32  87 N22G29    30.28R
GRAND FORKS AF CLOUDY    36  32  87 N23G31    30.28R
GRAND CITY NWS   N/A     34 N/A N/A N15         N/A  WCI  24
BUXTON           N/A     36  35  94 NW16        N/A
DEVILS LAKE    CLOUDY    34  21  60 N20       30.32R WCI  22
FARGO          PTSUNNY   40  35  83 N18G25    30.22R
WAHPETON ARPT  CLOUDY    41  36  81 N17       30.18R
$$

 *****  WEATHER ACROSS CENTRAL AND WESTERN NORTH DAKOTA  *****

CITY           SKY/WX    TMP DP  RH WIND       PRES   REMARKS
JAMESTOWN      CLOUDY    34  31  88 N15       30.27R WCI  24
BISMARCK       CLOUDY    34  30  85 N13       30.34R WCI  25
MINOT          CLOUDY    34  28  79 N14       30.38R WCI  25
MINOT AFB      CLOUDY    34  31  89 N12       30.38R
GARRISON         N/A     33  30  88 N8        30.35R
WILLISTON      CLOUDY    37  32  82 N9        30.40R
DICKINSON      CLOUDY    36  33  89 N7        30.33R FOG
HETTINGER      CLOUDY    36  31  82 N13       30.35R
$$

 *****  OTHER OBSERVATIONS NORTHEAST NORTH DAKOTA  *****

CITY           SKY/WX    TMP DP  RH WIND       PRES   REMARKS
WALHALLA         N/A     32  27  80 NW20G26   30.34R WCI  20
LANGDON        CLOUDY    30  25  80 N18       30.32R WCI  18
CAVALIER       CLOUDY    36  28  75 N17G25    30.32R
GRAFTON        CLOUDY    36  28  75 N22G31    30.30R
CANDO          CLOUDY    32  25  74 N17G30    30.36R WCI  21
FORT TOTTEN      N/A     34  29  83 N7        29.95S
ROLLA          CLOUDY    28  23  80 N22       30.36R WCI  15
RUGBY          FAIR      32  27  80 NE16      30.37R WCI  21
 ***** THE ABOVE OBSERVATIONS ARE NON NWS ARE NOT QUALITY
        CONTROLLED AND MAY MIS-REPORT RAIN FOR SNOW...
$$

 *****  OTHER OBSERVATIONS SOUTHEAST NORTH DAKOTA *****

CITY           SKY/WX    TMP DP  RH WIND       PRES   REMARKS
COOPERSTOWN    NOT AVBL
VALLEY CITY    PTSUNNY   37  36  93 N18G24    30.26R
OAKES            N/A     37  36  93 N22       30.23R
GWINNER        CLOUDY    39  36  87 N24       30.23R
SHEYENNE NWR     N/A     40  34  78 N14       29.95
BUFFALO        NOT AVBL
WYNDMERE         N/A     39  37  93 VRB13       N/A
 ***** THE ABOVE OBSERVATIONS ARE NON NWS ARE NOT QUALITY
       CONTROLLED AND MAY MIS-REPORT RAIN FOR SNOW...
$$

  *****  WEATHER ACROSS NORTHERN MINNESOTA  *****

CITY           SKY/WX    TMP DP  RH WIND       PRES   REMARKS
FLAG ISLAND    CLOUDY    36  30  80 NW21      30.17R
WARROAD        CLOUDY    36  32  87 NW15G24   30.20R
ROSEAU         CLOUDY    36  32  87 NW15      30.22R
HALLOCK        PTSUNNY   36  30  80 NW18G24   30.29R
THF RVR FALLS  CLOUDY   N/A N/A N/A N16G22    30.22R
HALSTAD          N/A     38  34  86 N16         N/A
FOSSTON        CLOUDY    36  32  87 N15       30.20R
BAUDETTE       LGT RAIN  36  33  89 N9        30.15R
WASKISH        CLOUDY    36  34  93 NW9       30.16R
CROOKSTON      CLOUDY    36  34  93 N16       30.26R
$$
  *****  WEATHER ACROSS CENTRAL AND WEST MINNESOTA  *****

CITY           SKY/WX    TMP DP  RH WIND       PRES   REMARKS
BEMIDJI        CLOUDY    36  31  82 N9G17     30.15R
PARK RAPIDS    CLOUDY    38  33  82 N14       30.14R
WADENA         DRIZZLE   37  36  93 N8        30.14R
DETROIT LAKES  CLOUDY    39  36  87 N8        30.17R
MOORHEAD       MOSUNNY   41  39  93 N20G28    30.22R
FERGUS FALLS   CLOUDY    41  37  87 N14       30.18R
ELBOW LAKE     CLOUDY    40  38  95 N8        30.14R
MORRIS MN      MOSUNNY   43  39  87 N13       30.12R
STAPLES        CLOUDY    37  36  93 N8        30.13R
WHEATON        CLOUDY    37  37 100 N9        30.18R FOG
$$
  *****  WEATHER ELSEWHERE ACROSS MINNESOTA  *****

CITY           SKY/WX    TMP DP  RH WIND       PRES   REMARKS
DULUTH         PTSUNNY   38  31  76 NW10      30.07R
INTRNTL FALLS  CLOUDY    37  34  89 NW12      30.11R
ELY            CLOUDY    36  34  93 NW3       30.06R
CLOQUET        CLOUDY    37  30  75 NW12      30.08S
BRAINERD       CLOUDY    37  36  96 N6        30.12R FOG
HIBBING        CLOUDY    38  31  76 NW13      30.09R
ALEXANDRIA     CLOUDY    41  36  82 N10       30.12R
SAINT CLOUD    CLOUDY    43  36  76 N5        30.11R
MINNEAPOLIS    CLOUDY    42  35  76 VRB3      30.09R
$$

  *****  WEATHER ACROSS SOUTH DAKOTA  *****

CITY           SKY/WX    TMP DP  RH WIND       PRES   REMARKS
SIOUX FALLS    MOSUNNY   52  38  58 N16       30.08R
BROOKINGS      NOT AVBL
WATERTOWN      CLOUDY    43  41  93 N16       30.12R
HURON          CLOUDY    42  35  76 N21       30.17R
SISSETON         N/A     40  40 100 N14       30.16R
ABERDEEN       CLOUDY    40  37  89 N21G26    30.21R
MITCHELL       MOSUNNY   47  38  71 N20G28    30.16R
PIERRE         SUNNY     44  34  67 N24G30    30.24R
MOBRIDGE       CLOUDY    37  32  82 N12G21    30.27R
RAPID CITY     SUNNY     53  35  50 N12       30.30R
$$

  *****  SOME WEATHER IN NEARBY STATES *****

CITY           SKY/WX    TMP DP  RH WIND       PRES   REMARKS
GLASGOW MT     CLOUDY    36  30  79 E8        30.38R
GREAT FALLS MT SUNNY     43  34  70 E3        30.25S
CHEYENNE WY    SUNNY     47  27  45 W6        30.38S
SCOTTSBLUFF NE SUNNY     47  29  49 NW9       30.35R
OMAHA NE       MOSUNNY   55  37  50 N14       30.06F
DES MOINES IA  MOSUNNY   54  37  52 SW6       30.02S
DAVENPORT IA   PTSUNNY   46  34  62 S7        30.12S
CHICAGO IL     PTSUNNY   47  34  60 SW9       30.12F
EAU CLAIRE WI  CLOUDY    42  34  73 CALM      30.08R
LA CROSSE WI   CLOUDY    43  36  76 S6        30.09R
$$

  *****  SOME NATIONAL WEATHER *****

CITY           SKY/WX    TMP DP  RH WIND       PRES   REMARKS
LA GUARDIA NY  MOSUNNY   56  38  50 N9        29.99S
RALEIGH NC     MOSUNNY   63  45  51 N6        30.06S
ATLANTA GA     MOSUNNY   62  39  42 N6        30.09S
NEW ORLEANS LA SUNNY     70  47  43 NE14      30.13R
OKLAHOMA CITY  MOSUNNY   67  47  48 W16       30.16R
ALBUQUERQUE NM SUNNY     53  14  21 N10       30.36R
SALT LAKE CITY MOSUNNY   50  29  44 SE7       30.26F
LOS ANGELES CA MOSUNNY   66  60  81 E3        30.00R
BOISE ID       MOSUNNY   53  37  54 S10       30.14S
SEATTLE WA     CLOUDY    59  49  69 SE10      29.89R
$$

*** WEATHER ACROSS MANITOBA...SASKATCHEWAN AND ONTARIO ***
                ***ONTARIO***

CITY           SKY/WX    TMP DP  RH WIND       PRES   REMARKS
GERALDTON      LGT SNOW  30  28  93 CALM      30.01F
THUNDER BAY    LGT RAIN  39  37  93 W5        30.04S
SIOUX LOOKOUT  FLURRIES  34  28  80 N8        30.07R
TORONTO        PTSUNNY   45  37  76 VRB2      30.08S
BIG TROUT LK   FLURRIES  25  21  86 N7G18     30.12R WCI  17
PICKLE LAKE    LGT SNOW  27  23  86 N9        30.05R WCI  17
DRYDEN         FLURRIES  32  30  93 N5        30.09S
KENORA         SNOWSHWR  32  32 100 NW9       30.14R WCI  24
$$
                *** MANITOBA***

CITY           SKY/WX    TMP DP  RH WIND       PRES   REMARKS
BRANDON        PTSUNNY   34  19  55 N18G28    30.41R WCI  23
DAUPHIN        CLOUDY    32  23  69 NW13      30.44R WCI  22
ISLAND LAKE    CLOUDY    27  21  80 N16G28    30.30  WCI  14
PILOT MOUND      N/A     28  19  69 N22G29      N/A  WCI  15
THE PAS        MOSUNNY   28  21  74 N10       30.48R WCI  19
THOMPSON       FLURRIES  21  16  79 N8        30.44R WCI  12
WINNIPEG       FLURRIES  32  27  80 N17G28    30.34R WCI  21
LYNN LAKE      CLOUDY    19  18  93 NW3       30.45R
CHURCHILL      FLURRIES  19  16  86 NW17G25   30.37R WCI   4
GILLAM         CLOUDY    18  14  86 NW14      30.38R WCI   4
$$
                ***SASKATCHEWAN***

CITY           SKY/WX    TMP DP  RH WIND       PRES   REMARKS
ESTEVAN        CLOUDY    34  28  80 NE12      30.40R
KINDERSLEY     CLOUDY    30  28  93 SE17      30.37R WCI  18
LLOYDMINSTER   CLOUDY    32  30  93 S16       30.34R WCI  21
PRINCE ALBERT  CLOUDY    27  19  74 SE8       30.50R WCI  18
REGINA         CLOUDY    30  28  93 E10       30.44R WCI  21



USA.gov is the U.S. government's official web portal to all federal, state and local government web resources and services.